TimeCST,TemperatureF,Dew PointF,Humidity,Sea Level PressureIn,VisibilityMPH,Wind Direction,Wind SpeedMPH,Gust SpeedMPH,PrecipitationIn,Events,Conditions,WindDirDegrees,DateUTC
12:12 AM,39.2,37.4,93,29.91,1.8,Calm,Calm,-,N/A,,Overcast,0,2013-02-22 06:12:00
12:53 AM,39.0,37.9,96,29.92,0.5,Calm,Calm,-,N/A,Fog,Fog,0,2013-02-22 06:53:00
1:02 AM,39.2,37.4,93,29.92,0.2,Calm,Calm,-,N/A,Fog,Fog,0,2013-02-22 07:02:00
1:53 AM,37.9,37.0,97,29.94,0.2,West,3.5,-,N/A,Fog,Fog,280,2013-02-22 07:53:00
2:53 AM,37.9,37.0,97,29.96,0.2,Calm,Calm,-,N/A,Fog,Fog,0,2013-02-22 08:53:00
3:53 AM,37.9,36.0,93,29.96,0.5,Calm,Calm,-,N/A,Fog,Fog,0,2013-02-22 09:53:00
4:01 AM,37.4,37.4,100,29.96,0.2,Calm,Calm,-,N/A,Fog,Fog,0,2013-02-22 10:01:00
4:53 AM,37.9,37.0,97,29.97,0.2,Calm,Calm,-,N/A,Fog,Fog,0,2013-02-22 10:53:00
5:21 AM,37.4,35.6,93,29.98,0.5,Calm,Calm,-,N/A,Fog,Fog,0,2013-02-22 11:21:00
5:53 AM,37.0,36.0,96,30.02,0.5,West,4.6,-,N/A,Fog,Fog,280,2013-02-22 11:53:00
6:53 AM,37.0,36.0,96,30.05,0.8,NW,4.6,-,N/A,,Mist,320,2013-02-22 12:53:00
7:53 AM,37.0,36.0,96,30.07,0.5,NW,5.8,-,N/A,Fog,Fog,320,2013-02-22 13:53:00
8:53 AM,37.0,37.0,100,30.11,1.0,Calm,Calm,-,N/A,,Mist,0,2013-02-22 14:53:00
9:02 AM,37.4,37.4,100,30.10,0.8,NW,3.5,-,N/A,,Mist,310,2013-02-22 15:02:00
9:11 AM,37.4,37.4,100,30.10,1.5,NNW,3.5,-,N/A,,Overcast,330,2013-02-22 15:11:00
9:26 AM,37.4,37.4,100,30.11,3.0,Calm,Calm,-,N/A,,Overcast,0,2013-02-22 15:26:00
9:53 AM,39.0,37.0,93,30.09,7.0,Calm,Calm,-,N/A,,Overcast,0,2013-02-22 15:53:00
10:20 AM,39.2,37.4,93,30.10,2.5,NW,3.5,-,N/A,,Overcast,310,2013-02-22 16:20:00
10:32 AM,39.2,37.4,93,30.10,7.0,Calm,Calm,-,N/A,,Overcast,0,2013-02-22 16:32:00
10:53 AM,39.9,37.0,89,30.11,10.0,Calm,Calm,-,N/A,,Overcast,0,2013-02-22 16:53:00
11:53 AM,42.1,37.9,85,30.09,10.0,Calm,Calm,-,N/A,,Overcast,0,2013-02-22 17:53:00
12:48 PM,44.6,39.2,81,30.06,10.0,Calm,Calm,-,N/A,,Overcast,0,2013-02-22 18:48:00
12:53 PM,44.1,39.0,82,30.06,10.0,ENE,3.5,-,N/A,,Overcast,60,2013-02-22 18:53:00
1:31 PM,44.6,39.2,81,30.02,10.0,Calm,Calm,-,N/A,,Overcast,0,2013-02-22 19:31:00
1:53 PM,46.0,39.9,79,30.02,10.0,Variable,3.5,-,N/A,,Overcast,0,2013-02-22 19:53:00
2:53 PM,48.0,41.0,77,30.01,10.0,Calm,Calm,-,N/A,,Partly Cloudy,0,2013-02-22 20:53:00
3:53 PM,48.9,41.0,74,30.03,10.0,East,4.6,-,N/A,,Scattered Clouds,90,2013-02-22 21:53:00
4:53 PM,50.0,41.0,71,30.02,10.0,Calm,Calm,-,0.00,,Mostly Cloudy,0,2013-02-22 22:53:00
5:53 PM,48.0,41.0,77,30.03,10.0,Calm,Calm,-,N/A,,Overcast,0,2013-02-22 23:53:00
6:53 PM,46.9,41.0,80,30.03,10.0,North,3.5,-,N/A,,Overcast,360,2013-02-23 00:53:00
7:53 PM,46.0,41.0,83,30.05,10.0,Calm,Calm,-,N/A,,Mostly Cloudy,0,2013-02-23 01:53:00
8:53 PM,46.0,39.9,79,30.06,10.0,NNE,3.5,-,N/A,,Overcast,20,2013-02-23 02:53:00
9:53 PM,44.1,37.9,79,30.07,10.0,Calm,Calm,-,N/A,,Mostly Cloudy,0,2013-02-23 03:53:00
10:53 PM,43.0,36.0,76,30.07,10.0,Calm,Calm,-,N/A,,Partly Cloudy,0,2013-02-23 04:53:00
11:53 PM,41.0,33.1,73,30.06,10.0,Variable,3.5,-,N/A,,Clear,0,2013-02-23 05:53:00